Location: Prazzo
(44.4833°N, 7.0667°E)
Time: 00:27:03
(UTC+00:00)

Daily predictions for brighter satellites

Satellite Brightness Start Highest point End
(mag) Time Altitude Azimuth Time Altitude Azimuth Time Altitude Azimuth
Cosmos 1937 Rocket 3.7 00:04:13 45° SSE 00:05:28 57° ESE 00:10:37 10° NNE
Cosmos 923 Rocket 4.2 00:03:37 10° NNW 00:08:52 68° ENE 00:11:01 35° SE
Cosmos 1844 Rocket 4.3 00:09:59 18° SE 00:11:46 21° E 00:15:49 10° NE
Cosmos 1898 Rocket 3.4 00:13:33 49° SSW 00:14:59 87° WNW 00:20:11 10° NNE
GEOS 3 Rocket 3.5 00:15:31 10° NE 00:20:41 78° SE 00:22:16 46° SSW
Meteor 2-1 Rocket 4.3 00:16:22 10° N 00:22:18 79° E 00:24:46 36° SSE
In-Cosmos 22 Rocket 4.3 00:27:54 41° SSW 00:30:02 78° WNW 00:35:54 10° N
CZ-2D R/B 4.0 00:28:53 10° NE 00:32:50 21° E 00:35:45 14° SE
Helios 1A Rocket 3.1 00:32:17 45° SE 00:33:09 59° ENE 00:36:54 10° N
Cosmos 1900 4.4 00:31:44 47° S 00:33:09 73° ESE 00:38:14 10° NE
Cosmos 1606 2.4 00:31:29 10° N 00:35:04 75° E 00:35:21 70° SE
Nimbus 7 Rocket 4.4 00:29:35 10° NNE 00:35:42 83° WNW 00:38:16 37° SSW
ADEOS II 4.4 00:33:54 10° NE 00:36:53 15° E 00:39:52 10° SE
Cosmos 1869 3.0 00:35:25 10° N 00:39:08 84° E 00:39:31 70° SSE
CZ-2C R/B 4.2 00:34:43 10° SE 00:39:19 31° ENE 00:44:01 10° N
Cosmos 2341 Rocket 3.9 00:36:54 37° SSW 00:39:32 85° W 00:45:48 10° N
CENTAUR R/B 3.7 00:35:45 12° WSW 00:40:47 38° NW 00:47:29 10° NNE
SL-16 R/B 2.9 00:37:02 10° NW 00:42:08 35° WSW 00:43:10 32° SW
Cosmos 1437 Rocket 4.1 00:41:31 25° ESE 00:42:28 29° E 00:45:45 10° NNE
Cosmos 1461 3.5 00:43:01 36° W 00:44:04 45° NW 00:47:49 10° NNE
Cosmos 1603 4.3 00:41:51 10° NNW 00:47:31 56° ENE 00:53:01 11° SE
Cosmos 1680 Rocket 3.4 00:44:25 10° NNW 00:49:38 74° WSW 00:51:38 38° S
Cosmos 2228 3.1 00:45:52 10° N 00:50:11 71° E 00:51:38 39° SSE
Cosmos 2082 4.4 00:48:25 26° WSW 00:51:13 45° WNW 00:56:37 10° NNE
Cosmos 2227 Rocket 4.2 00:47:08 10° W 00:51:16 20° NW 00:55:24 10° N
Cosmos 1943 3.1 00:47:28 10° NNW 00:53:07 87° WSW 00:56:23 26° SSE
Cosmos 2112 Rocket 3.9 00:48:27 10° NNW 00:53:39 81° WSW 00:55:57 34° SSE
Cosmos 1821 Rocket 4.2 00:56:51 28° SSE 01:00:11 66° E 01:06:18 10° NNE
Resurs 1-4 Rocket 3.1 00:55:28 10° NNE 01:00:23 38° E 01:03:22 21° SSE
NPP 4.2 00:55:58 10° NNE 01:01:13 50° E 01:04:00 26° SSE
USA 238 DEB 3.5 00:59:38 33° SSW 01:02:32 71° ESE 01:09:10 10° NE
USA 238 3.6 00:59:40 33° SSW 01:02:34 70° ESE 01:09:13 10° NE
BREEZE-M DEB (TANK) 3.3 01:01:33 10° WNW 01:04:15 27° W 01:04:15 27° W
H-2A R/B 4.4 01:07:42 10° NNW 01:09:32 13° WNW 01:11:19 10° W
Cosmos 2218 Rocket 4.1 01:07:06 31° SSW 01:10:07 64° W 01:16:16 10° N
BlueWalker 3 4.2 01:07:09 10° NW 01:10:21 26° NNE 01:13:34 10° ENE
Cosmos 1818 4.1 01:06:05 10° NW 01:11:08 39° WSW 01:12:28 33° SSW
Cosmos 2366 rocket 4.2 01:08:29 30° SSW 01:11:32 60° WNW 01:17:42 10° N
Cosmos 1544 Rocket 4.0 01:09:19 10° NNW 01:13:34 47° W 01:14:42 38° SW
Cosmos 1048 Rocket 4.5 01:17:26 10° NNW 01:22:38 62° ENE 01:27:52 10° SSE
Cosmos 494 Rocket 4.0 01:20:58 10° NNW 01:26:14 90° E 01:30:27 16° SSE
Cosmos 921 Rocket 2.9 01:24:57 10° NNW 01:29:10 86° ENE 01:31:45 23° SSE
Cosmos 1125 Rocket 4.2 01:30:37 20° SSE 01:33:56 47° ESE 01:39:00 10° NNE
IDEFIX/ARIANE 42P 2.5 01:29:35 10° NNE 01:34:51 81° WNW 01:37:48 27° SSW
Cosmos 1844 3.7 01:32:48 27° SSW 01:36:07 86° ESE 01:41:58 10° NNE
Cosmos 2263 Rocket 4.0 01:33:35 10° W 01:37:45 21° NW 01:41:55 10° N
Cosmos 2123 Rocket 4.5 01:32:12 10° N 01:38:19 59° ENE 01:44:26 10° SSE
MSX 3.8 01:34:19 10° NNE 01:40:05 87° WNW 01:43:48 23° SSW
USA 267 4.5 01:41:00 10° ENE 01:46:30 28° SE 01:51:00 14° S
NOSS 3-2 (C) 4.4 01:42:25 13° WSW 01:46:45 38° NW 01:52:38 10° NNE
Cosmos 1606 Rocket 3.5 01:44:26 10° NNW 01:48:53 76° W 01:51:46 21° S
CZ-2C R/B 3.0 01:49:32 10° NNE 01:54:53 88° WNW 01:58:24 20° SSW
Iridium 2 3.0 01:54:17 34° SSE 01:55:03 54° E 01:57:26 10° NNE
Cosmos 1844 Rocket 2.9 01:51:37 22° SW 01:55:09 60° WNW 02:00:41 10° NNE
Genesis I 4.4 01:52:53 10° NNW 01:56:20 41° NE 01:59:46 10° ESE
SL-16 R/B 2.9 01:50:41 10° SSE 01:56:52 68° ENE 02:03:03 10° N
Cosmos 1867 4.3 01:55:11 18° WSW 01:59:03 46° NW 02:04:22 10° NNE
SL-24 DEB 4.2 01:55:25 10° N 02:00:00 85° E 02:03:33 17° S
Cosmos 1726 Rocket 3.5 01:58:19 10° NNW 02:02:45 73° W 02:06:13 16° S
H-2A R/B 4.2 02:04:06 10° N 02:07:47 37° WNW 02:10:00 20° SW
Cosmos 1238 Rocket 3.1 02:09:32 10° N 02:12:39 47° ENE 02:15:31 10° SSE
CZ-2D R/B 2.4 02:08:00 10° N 02:13:11 54° WNW 02:17:02 17° SW
USA 81 4.1 02:09:43 10° N 02:15:01 87° E 02:20:17 10° S
ALOS 2.5 02:10:49 10° NNE 02:15:26 67° ESE 02:19:41 12° S
ADEOS II 2.1 02:11:48 10° N 02:17:03 73° WNW 02:21:21 15° SSW
Cosmos 1437 Rocket 4.4 02:16:19 15° WSW 02:18:08 20° WNW 02:20:58 10° NNW
CZ-2C R/B 3.2 02:15:43 16° SSW 02:19:26 38° W 02:24:29 10° NNW
Alouette 2 Rocket 3.4 02:19:18 17° SSW 02:22:35 68° WNW 02:26:11 10° N
BREEZE-M DEB (TANK) 4.0 02:23:33 16° SSW 02:23:33 16° SSW 02:26:17 10° S
CZ-2C R/B 4.2 02:21:07 10° NE 02:24:54 25° E 02:28:41 10° SSE
Lacrosse 5 4.1 02:22:09 10° SSE 02:25:07 16° ESE 02:28:05 10° E
ASTEX 1 3.5 02:21:24 13° S 02:25:39 55° W 02:30:26 10° NNW
AQUA 3.8 02:21:23 10° N 02:26:06 72° WNW 02:30:10 14° SSW
Cosmos 1607 4.3 02:20:46 10° NW 02:26:45 43° WSW 02:32:35 10° S
Cosmos 2278 Rocket 4.1 02:23:23 10° SSE 02:27:47 24° ESE 02:32:11 10° NE
NOSS 2-2 (E) 3.8 02:26:27 14° S 02:29:01 37° ESE 02:31:56 10° NE
ATLAS 5 CENTAUR R/B 1.3 02:26:52 17° SSW 02:29:14 55° ESE 02:32:42 10° NE
FENGYUN 3A 3.9 02:23:59 10° N 02:29:17 59° WNW 02:33:58 13° SSW
Cosmos 1812 2.9 02:28:12 10° NNW 02:31:38 44° W 02:34:36 13° SSW
Cosmos 1271 Rocket 4.4 02:32:32 10° SSE 02:35:38 28° E 02:38:46 10° NNE
Resurs 1-4 Rocket 3.2 02:35:28 10° N 02:40:03 31° WNW 02:44:25 11° WSW
Cosmos 2298 Rocket 4.1 02:35:43 12° SSW 02:40:44 83° WNW 02:46:07 10° NNE
Timation 2 Rocket 4.3 02:37:21 13° SW 02:43:18 60° WNW 02:49:35 10° NNE
Cosmos 2058 3.3 02:40:06 13° SSW 02:43:34 48° WNW 02:47:33 10° N
BlueWalker 3 1.9 02:45:10 10° NW 02:48:56 86° NE 02:52:40 10° ESE
Cosmos 1933 4.1 02:45:26 10° N 02:49:19 54° E 02:53:10 10° SSE
SAR-Lupe-4 3.6 02:45:52 10° N 02:49:24 66° WNW 02:52:54 10° SSW
Cosmos 1758 Rocket 4.0 02:46:42 10° S 02:51:04 66° E 02:55:25 10° NNE
Cosmos 2058 Rocket 3.6 02:47:08 10° NNW 02:51:18 41° W 02:55:24 10° SSW
NOSS 2-2 (C) 3.1 02:56:39 10° SW 02:59:48 54° NW 03:02:52 10° NNE
Envisat 3.1 02:54:57 10° NNE 03:00:04 87° E 03:05:08 10° SSW
Cosmos 1544 3.5 02:57:59 11° SW 03:00:05 25° WNW 03:02:20 10° NNW
H-2A R/B 4.2 02:57:02 10° NE 03:01:20 25° E 03:05:31 10° SSE
Cosmos 1605 Rocket 4.2 02:56:23 10° SSW 03:02:26 57° WNW 03:08:28 10° N
Cosmos 1862 3.8 02:59:28 10° S 03:03:11 57° E 03:06:55 10° NNE
Cosmos 1500 4.0 03:00:28 10° SSE 03:03:44 44° E 03:07:02 10° NNE
Iridium 4 Rocket 3.9 03:03:16 10° NNW 03:07:32 39° W 03:12:09 10° SSW
NOSS 2-3 (D) 3.2 03:04:30 10° SW 03:08:10 86° NW 03:12:10 10° NE
Cosmos 1833 Rocket 2.7 03:02:56 10° NNW 03:08:37 85° WSW 03:14:15 10° SSE
USA 276 3.6 03:06:24 10° SSW 03:08:52 24° SE 03:11:16 10° E
Cosmos 1626 Rocket 3.9 03:06:24 10° SSW 03:10:42 51° WNW 03:15:01 10° N
